Showing default

QIANFAN-1, 60379

Orbit data source: Space-Track

QIANFAN-1, 60379 is a Chinese payload satellite in LEO that was launched on Tue, 06 Aug 2024 UTC via a CHANG ZHENG 6A launch vehicle from the Taiyaun Space Center, China (TSC). Payloads include a variety of satellites, spacecraft, and rockets equipped with specific instruments for various scientific and technological missions. These include communications satellites like Starlink; space stations such as the ISS; scientific satellites like the Hubble; Earth observation satellites from companies like Planet Labs, Umbra, and HawkEye 360; GPS; miniature CubeSats for education and research; and military/defense satellites.

Loading next visibility...
QIANFAN-1 details
Identifier
60379, 2024-140A
Orbit
LEO
Last TLE update7 hours ago
Origin
Flag of CNYUANX (CN / PRC)
ManufacturerSECM
MissionOperational spacecraft
Bus & MotorQIANFAN, Unknown motor
Mass300 kg wet, ~300 kg dry
Launch date (UTC)
2024-08-06 (6 months ago)
Launch vehicle
CHANG ZHENG 6A
Launch site
Taiyaun Space Center, China (TSC)
Object type
Payload
Rocket body
Debris
Shape & HBRUnknown
Radar Cross SectionLarge (>1 m²)

Expand to show TLE details & history

TLE from 7 hours ago
0 QIANFAN-1
1 60379U 24140A   25025.54336617  .00000210  00000-0  30643-3 0  9997
2 60379  88.9912 332.3286 0019645  64.5324 295.7857 13.50916217 23980
Epoch: 2025-01-25T13:02Z
Definitive object data (Epoch: 2025-01-25T13:02:26.837Z)
Latitude0.00003°
Longitude11.62611°
Altitude1,065.501 km
Speed7.322 km/s
True Right ascension22h 09m 18s
True Declination0° 00' 00"
Sunlit
Object was in daylight at TLE epoch
Visualization TLE readout
Latitude-16.56782°
Longitude11.29767°
Altitude1,072.899 km
Speed7.316 km/s
Apparent Right ascension23h 33m 13s
Apparent Declination-67° 58' 59"
Sunlit
Object is in daylight
Visualization observer readout
Local Sidereal Time21:25:14
Azimuth167.753° S
Elevation-20.55°
Doppler factor1
Orbital elements
Apogee altitude1,080.565 km
Perigee altitude1,051.317 km
Semi-major axis7,444.078 km
Eccentricity0.0019645
Inclination88.9912°
RAAN332.3286°
Arg. of periapsis64.5324°
True anomaly295.58278°
Mean anomaly295.7857°
Eccentric anomaly295.68426°
Mean motion3.3793 °/min
BSTAR0.00030643
Orbital period106.53 mins
Loading maneuver chart data...
Loading historical data...
Loading historical data...
Loading historical data...
Loading historical data...
Loading historical data...
Loading historical data...
Loading historical data...

QIANFAN-1 Visibility forecast

Observer location: undefined°, undefined

Span
Click to sort rows by Start time (UTC) header in descending order
Start Az.
Max El. time (UTC)
Max El. Az.
Max El.
End time (UTC)
End Az.
12 mins2025-01-25 20:15:12.027Z156.403° SSE2025-01-25 20:21:12.027Z75.597° E38.627°2025-01-25 20:27:12.027Z9.044° NNE
8 mins2025-01-25 22:04:12.027Z239.487° WSW2025-01-25 22:08:12.027Z285.616° WNW21.723°2025-01-25 22:12:12.027Z327.453° NNW
9 mins2025-01-26 07:26:12.027Z35.491° NE2025-01-26 07:30:12.027Z81.844° E23.342°2025-01-26 07:35:12.027Z133.084° SE
10 mins2025-01-26 09:12:12.027Z344.559° N2025-01-26 09:17:12.027Z267.656° W37.206°2025-01-26 09:22:12.027Z207.644° SW
7 mins2025-01-26 19:25:12.027Z108.007° ESE2025-01-26 19:28:12.027Z73.04° E20.819°2025-01-26 19:32:12.027Z31.56° NE
|